Regional Weather Roundup
Issued by NWS

Home | Current Version | Previous Version | Text Only | Print | Product List | Glossary On
Versions: 1 2 3 4 5 6 7 8 9 10 11 12 13 14 15 16 17 18 19 20 21 22 23 24 25 26 27 28 29 30 31 32 33 34 35 36 37 38 39 40 41 42 43 44 45 46 47 48 49 50
000
ASUS44 KJAN 020010
RWRMS

MISSISSIPPI HOURLY WEATHER ROUNDUP
NATIONAL WEATHER SERVICE JACKSON MS
700 PM CDT SUN MAY 01 2016

NOTE: "FAIR: INDICATES FEW OR NO CLOUDS BELOW 12,000 FEET WITH NO
SIGNIFICANT WEATHER AND/OR OBSTRUCTIONS TO VISIBILITY.

MSZ001>002-007>008-010>013-018>021-025>028-034>036-020100-
NORTHWEST MISSISSIPPI

CITY           SKY/WX    TMP DP  RH WIND       PRES   REMARKS
BATESVILLE     CLOUDY    78  67  69 SE3       29.93R
CLEVELAND      FAIR      78  74  85 SE6       29.89S
GREENWOOD      PTCLDY    78  67  68 SE8       29.91F
6HR MIN TEMP:  73; 6HR MAX TEMP:  81;

GREENVILLE     LGT RAIN  79  68  69 SE9       29.88F
6HR MIN TEMP:  76; 6HR MAX TEMP:  84; 6HR PCP: TRACE;

OLIVE BRANCH   MOCLDY    75  73  94 S6        29.93R
OXFORD         FAIR      77  64  65 S5        29.95R
TUNICA         CLEAR     77  68  73 CALM      29.92S
WINONA         MOCLDY    76  69  78 SE6       29.93S
$$

MSZ003>006-009-014>017-022>024-029>033-037>039-020100-
NORTHEAST MISSISSIPPI

CITY           SKY/WX    TMP DP  RH WIND       PRES   REMARKS
COLUMBUS AFB   NOT AVBL
CORINTH        FAIR      75  66  73 S7        29.93F
GOLDN TRIANGLE MOCLDY    72  64  78 SE12      29.96F
STARKVILLE     MOCLDY    72  66  83 SE6       29.95S
TUPELO         MOCLDY    75  65  70 SE8       29.95R
6HR MIN TEMP:  71; 6HR MAX TEMP:  78;

$$

MSZ040-058-020100-
CENTRAL MISSISSIPPI

CITY           SKY/WX    TMP DP  RH WIND       PRES   REMARKS
JACKSON INTL   MOCLDY    77  66  68 SE12      29.92S
6HR MIN TEMP:  74; 6HR MAX TEMP:  81;

JACKSON HAWKNS PTCLDY    76  65  68 S14       29.92S
6HR MIN TEMP:  71; 6HR MAX TEMP:  80;

MADISON        MOCLDY    75  68  78 S3        29.92S
MERIDIAN KEY   CLOUDY    73  69  87 SE3       29.95F
6HR MIN TEMP:  67; 6HR MAX TEMP:  76; 6HR PCP:  0.41;

MERIDIAN NAS   CLOUDY    73  69  87 SE6       29.97R
6HR MIN TEMP:  69; 6HR MAX TEMP:  76; 6HR PCP:  0.08;

VICKSBURG TVR  CLEAR     79  68  69 E12       29.89S
6HR MIN TEMP:  79; 6HR MAX TEMP:  85;

VICKSBURG VKS  PTCLDY    79  68  69 CALM      29.89F
$$

MSZ059>079-020100-
SOUTH MISSISSIPPI

CITY           SKY/WX    TMP DP  RH WIND       PRES   REMARKS
BROOKHAVEN     FAIR     N/A N/A N/A SE5       29.93F
COLUMBIA       FAIR      72  66  83 CALM      29.95F
HATTIESBURG    CLOUDY    72  67  84 CALM      29.94S
6HR MIN TEMP:  72; 6HR MAX TEMP:  75; 6HR PCP:  0.17;

MCCOMB         PTCLDY    71  67  87 E6        29.91F
6HR MIN TEMP:  71; 6HR MAX TEMP:  75;

NATCHEZ        CLEAR     75  64  69 SE6       29.90S
6HR MIN TEMP:  75; 6HR MAX TEMP:  81;

PINE BELT      CLOUDY    72  64  78 SE3       29.94F
6HR MIN TEMP:  72; 6HR MAX TEMP:  73; 6HR PCP:  0.05;

$$

MSZ080>082-020100-
COASTAL MISSISSIPPI

CITY           SKY/WX    TMP DP  RH WIND       PRES   REMARKS
BAY ST LOUIS   MOCLDY    72  57  60 MISG      29.88F
BILOXI         CLOUDY    76  66  71 S8        29.88F
6HR MIN TEMP:  69; 6HR MAX TEMP:  77; 6HR PCP:  0.41;

PASCAGOULA     CLOUDY    74  66  76 S9        29.91F
6HR MIN TEMP:  71; 6HR MAX TEMP:  78; 6HR PCP:  0.03;

GULFPORT       CLOUDY    75  64  68 S16G29    29.85F
6HR MIN TEMP:  70; 6HR MAX TEMP:  76; 6HR PCP:  0.64;

$$




USA.gov is the U.S. government's official web portal to all federal, state and local government web resources and services.